Location: Baili�vre
(50.0696°N, 4.2409°E)
Time: 08:23:39
(UTC+00:00)

Cosmos 1356 - Pass Details

Date: 08 August 2020
Orbit: 444 x 445 km, 81.1° (Epoch: 26 September)

Event Time Altitude Azimuth Distance (km) Brightness Sun altitude
Exits shadow 22:38:12 45° 43° (NE) 623 4.2 -22.3°
Drops below altitude 10° 22:40:48 10° 19° (NNE) 1,579 6.9 -22.5°
Sets 22:42:53 0° 16° (NNE) 2,455 8.1 -22.6°
